When you browse on this site, cookies collect data to enhance your experience and personalize the content and advertising you see.
Visit our Privacy Policy to learn more. By continuing to use the site, you agree to this use of cookies and data.
  • In Latvia
  • List of Countries
  • For 7 days
  • Water Temperature
  • Satellite Maps
  • Weather Map
  • Weather Widgets
  • user-avatar
    Login

    Hourly Weather Koshelevo

    Today, 17 January, Thursday

    Time Temperature Precipitation Wind Pressure Humidity
    00:00 -8°C° 0 mm 3 mps 736 mmHg 93%
    01:00 -9°C° 0 mm 3 mps 736 mmHg 92%
    02:00 -8°C° 0 mm 2 mps 736 mmHg 93%
    03:00 -9°C° 0 mm 3 mps 736 mmHg 93%
    04:00 -10°C° 0 mm 3 mps 736 mmHg 92%
    05:00 -10°C° 0 mm 3 mps 736 mmHg 92%
    06:00 -12°C° 0 mm 3 mps 736 mmHg 92%
    07:00 -13°C° 0 mm 3 mps 736 mmHg 93%
    08:00 -14°C° 0 mm 4 mps 736 mmHg 94%
    09:00 -12°C° 0.1 mm 4 mps 735 mmHg 93%
    10:00 -11°C° 0.1 mm 5 mps 735 mmHg 91%
    11:00 -10°C° 0.1 mm 6 mps 734 mmHg 90%
    12:00 -9°C° 0.5 mm 6 mps 733 mmHg 90%
    13:00 -6°C° 0.5 mm 6 mps 733 mmHg 90%
    14:00 -6°C° 0.5 mm 7 mps 732 mmHg 89%
    15:00 -6°C° 0.3 mm 7 mps 732 mmHg 88%
    16:00 -4°C° 0.3 mm 7 mps 731 mmHg 87%
    17:00 -4°C° 0.3 mm 7 mps 730 mmHg 86%
    18:00 -3°C° 0.5 mm 7 mps 730 mmHg 86%
    19:00 -2°C° 0.5 mm 7 mps 729 mmHg 86%
    20:00 -2°C° 0.5 mm 7 mps 728 mmHg 86%
    21:00 -2°C° 0.4 mm 7 mps 728 mmHg 86%
    22:00 -2°C° 0.4 mm 7 mps 728 mmHg 86%
    23:00 -1°C° 0.4 mm 7 mps 728 mmHg 85%

    Tomorrow, 18 January, Friday

    Time Temperature Precipitation Wind Pressure Humidity
    00:00 -1°C° 0.1 mm 7 mps 728 mmHg 85%
    01:00 -2°C° 0.1 mm 6 mps 729 mmHg 84%
    02:00 -2°C° 0.1 mm 6 mps 729 mmHg 84%
    03:00 -2°C° 0 mm 6 mps 730 mmHg 83%
    04:00 -2°C° 0 mm 6 mps 730 mmHg 83%
    05:00 -2°C° 0 mm 6 mps 731 mmHg 83%
    06:00 -2°C° 0 mm 6 mps 731 mmHg 83%
    07:00 -2°C° 0 mm 6 mps 732 mmHg 84%
    08:00 -2°C° 0 mm 6 mps 733 mmHg 85%
    09:00 -2°C° 0.1 mm 6 mps 733 mmHg 86%
    10:00 -2°C° 0.1 mm 6 mps 734 mmHg 87%
    11:00 -1°C° 0.1 mm 5 mps 734 mmHg 88%
    12:00 -2°C° 0.3 mm 5 mps 735 mmHg 89%
    13:00 -2°C° 0.3 mm 4 mps 735 mmHg 90%
    14:00 -1°C° 0.3 mm 3 mps 736 mmHg 91%
    15:00 -2°C° 0.3 mm 2 mps 736 mmHg 93%
    16:00 -3°C° 0.3 mm 2 mps 736 mmHg 94%
    17:00 -2°C° 0.3 mm 1 mps 736 mmHg 95%
    18:00 -3°C° 0.5 mm 1 mps 736 mmHg 96%
    19:00 -5°C° 0.5 mm 2 mps 735 mmHg 96%
    20:00 -6°C° 0.5 mm 2 mps 735 mmHg 96%
    21:00 -8°C° 1.3 mm 3 mps 735 mmHg 95%
    22:00 -8°C° 1.3 mm 3 mps 735 mmHg 95%
    23:00 -10°C° 1.3 mm 4 mps 735 mmHg 94%

    Day after tomorrow, 19 January, Saturday

    Time Temperature Precipitation Wind Pressure Humidity
    00:00 -10°C° 0.3 mm 4 mps 736 mmHg 94%
    01:00 -9°C° 0.3 mm 3 mps 737 mmHg 93%
    02:00 -9°C° 0.3 mm 3 mps 737 mmHg 93%
    03:00 -10°C° 0 mm 3 mps 738 mmHg 92%
    04:00 -12°C° 0 mm 3 mps 739 mmHg 92%
    05:00 -12°C° 0 mm 4 mps 739 mmHg 92%
    06:00 -12°C° 0 mm 4 mps 740 mmHg 92%
    07:00 -12°C° 0 mm 4 mps 740 mmHg 92%
    08:00 -12°C° 0 mm 3 mps 741 mmHg 91%
    09:00 -11°C° 0 mm 4 mps 741 mmHg 90%
    10:00 -10°C° 0 mm 4 mps 741 mmHg 89%
    11:00 -9°C° 0 mm 4 mps 742 mmHg 88%
    12:00 -9°C° 0 mm 4 mps 742 mmHg 87%
    13:00 -8°C° 0 mm 4 mps 742 mmHg 87%
    14:00 -8°C° 0 mm 4 mps 742 mmHg 86%
    15:00 -8°C° 0 mm 4 mps 742 mmHg 87%
    16:00 -8°C° 0 mm 4 mps 742 mmHg 87%
    17:00 -8°C° 0 mm 4 mps 742 mmHg 88%
    18:00 -9°C° 0 mm 4 mps 743 mmHg 88%
    19:00 -9°C° 0 mm 4 mps 743 mmHg 88%
    20:00 -9°C° 0 mm 4 mps 743 mmHg 88%
    21:00 -10°C° 0 mm 4 mps 743 mmHg 89%
    22:00 -10°C° 0 mm 4 mps 744 mmHg 90%
    23:00 -10°C° 0 mm 4 mps 744 mmHg 91%

    20 January, Sunday

    Time Temperature Precipitation Wind Pressure Humidity
    00:00 -11°C° 0 mm 4 mps 744 mmHg 91%
    01:00 -10°C° 0 mm 3 mps 744 mmHg 92%
    02:00 -10°C° 0 mm 3 mps 744 mmHg 92%
    03:00 -10°C° 0 mm 3 mps 744 mmHg 92%
    04:00 -10°C° 0 mm 4 mps 744 mmHg 91%
    05:00 -10°C° 0 mm 4 mps 744 mmHg 91%
    06:00 -10°C° 0 mm 4 mps 744 mmHg 91%
    07:00 -10°C° 0 mm 4 mps 745 mmHg 92%
    08:00 -11°C° 0 mm 4 mps 745 mmHg 92%
    09:00 -10°C° 0 mm 4 mps 744 mmHg 91%
    10:00 -11°C° 0 mm 5 mps 744 mmHg 90%
    11:00 -11°C° 0 mm 5 mps 744 mmHg 89%
    12:00 -10°C° 0.2 mm 5 mps 744 mmHg 89%
    13:00 -10°C° 0.2 mm 5 mps 743 mmHg 88%
    14:00 -8°C° 0.2 mm 5 mps 743 mmHg 88%
    15:00 -7°C° 0.2 mm 5 mps 743 mmHg 88%
    16:00 -7°C° 0.2 mm 5 mps 742 mmHg 88%
    17:00 -7°C° 0.2 mm 5 mps 742 mmHg 87%
    18:00 -7°C° 0.3 mm 5 mps 742 mmHg 89%
    19:00 -7°C° 0.3 mm 4 mps 742 mmHg 90%
    20:00 -6°C° 0.3 mm 3 mps 742 mmHg 92%
    21:00 -6°C° 0.2 mm 3 mps 742 mmHg 93%
    22:00 -6°C° 0.2 mm 2 mps 743 mmHg 94%
    23:00 -7°C° 0.2 mm 2 mps 743 mmHg 95%

    21 January, Monday

    Time Temperature Precipitation Wind Pressure Humidity
    00:00 -8°C° 0.1 mm 2 mps 743 mmHg 95%
    01:00 -8°C° 0.1 mm 2 mps 743 mmHg 95%
    02:00 -9°C° 0.1 mm 2 mps 743 mmHg 96%
    03:00 -9°C° 0 mm 2 mps 743 mmHg 96%
    04:00 -10°C° 0 mm 2 mps 743 mmHg 95%
    05:00 -10°C° 0 mm 2 mps 743 mmHg 95%
    06:00 -12°C° 0 mm 2 mps 743 mmHg 95%
    07:00 -12°C° 0 mm 2 mps 743 mmHg 94%
    08:00 -12°C° 0 mm 2 mps 743 mmHg 94%
    09:00 -13°C° 0 mm 3 mps 743 mmHg 93%
    10:00 -13°C° 0 mm 3 mps 743 mmHg 91%
    11:00 -14°C° 0 mm 4 mps 744 mmHg 90%
    12:00 -13°C° 0 mm 3 mps 744 mmHg 89%
    13:00 -13°C° 0 mm 3 mps 744 mmHg 88%
    14:00 -14°C° 0 mm 3 mps 744 mmHg 88%
    15:00 -15°C° 0 mm 3 mps 744 mmHg 90%
    16:00 -16°C° 0 mm 3 mps 744 mmHg 92%
    17:00 -16°C° 0 mm 2 mps 744 mmHg 94%
    18:00 -16°C° 0 mm 2 mps 744 mmHg 95%
    19:00 -16°C° 0 mm 2 mps 745 mmHg 95%
    20:00 -17°C° 0 mm 3 mps 745 mmHg 95%
    21:00 -17°C° 0 mm 3 mps 745 mmHg 95%
    22:00 -16°C° 0 mm 2 mps 744 mmHg 96%
    23:00 -16°C° 0 mm 2 mps 744 mmHg 96%

    22 January, Tuesday

    Time Temperature Precipitation Wind Pressure Humidity
    00:00 -16°C° 0.1 mm 3 mps 744 mmHg 95%
    01:00 -15°C° 0.1 mm 3 mps 744 mmHg 95%
    02:00 -15°C° 0.1 mm 3 mps 744 mmHg 94%
    03:00 -14°C° 0 mm 3 mps 744 mmHg 94%
    04:00 -14°C° 0 mm 3 mps 744 mmHg 93%
    05:00 -14°C° 0 mm 3 mps 744 mmHg 93%
    06:00 -15°C° 0 mm 3 mps 744 mmHg 93%
    07:00 -15°C° 0 mm 3 mps 745 mmHg 94%
    08:00 -16°C° 0 mm 3 mps 745 mmHg 94%
    09:00 -15°C° 0 mm 3 mps 745 mmHg 94%
    10:00 -14°C° 0 mm 3 mps 745 mmHg 93%
    11:00 -13°C° 0 mm 3 mps 745 mmHg 93%
    12:00 -13°C° 0 mm 3 mps 745 mmHg 91%
    13:00 -12°C° 0 mm 3 mps 745 mmHg 90%
    14:00 -12°C° 0 mm 4 mps 745 mmHg 89%
    15:00 -12°C° 0 mm 3 mps 745 mmHg 90%
    16:00 -12°C° 0 mm 3 mps 746 mmHg 92%
    17:00 -12°C° 0 mm 2 mps 746 mmHg 93%
    18:00 -12°C° 0.1 mm 2 mps 746 mmHg 93%
    19:00 -13°C° 0.1 mm 3 mps 746 mmHg 93%
    20:00 -13°C° 0.1 mm 3 mps 746 mmHg 93%
    21:00 -13°C° 0 mm 2 mps 747 mmHg 94%
    22:00 -13°C° 0 mm 2 mps 747 mmHg 95%
    23:00 -14°C° 0 mm 2 mps 748 mmHg 96%
    Show more